Powrót do katalogu

FENGYUN 1C DEB

AktywnyPO
NORAD 37427·DEBRIS·🇨🇳 China

Wystrzelony May 10, 1999 z Taiyuan Satellite Launch Center

Loading…

Następne Przeloty (najbliższe 24 godziny)

TLE

Starzejące sięSource: Space-Track

Epoka: Sep 9, 2026, 17:38 UTC

1 37427U 99025EGV 26252.73479134  .00004729  00000-0  26892-3 0  9995
2 37427  98.6400  69.5176 0169627 126.0229 235.6849 15.02011798643867

Śledź FENGYUN 1C DEB w czasie rzeczywistym z AllMySat

Download on the App Store